Location: Fort Worth, Tx
(32.7431°N, 97.3695°W)
Time: 09:22:17
(UTC-04:00)

A-11 Canister half - Pass Details

Date: 19 August 2024
Orbit: 1524 x 1684 km, 47.3° (Epoch: 13 September)

Event Time Altitude Azimuth Distance (km) Brightness Sun altitude
Rises 04:52:35 0° 306° (NW) 4,940 11.6 -33.8°
Reaches altitude 10° 04:55:53 10° 310° (NW) 3,949 11.1 -33.3°
Maximum altitude 05:05:54 59° 29° (NNE) 1,883 9.6 -31.8°
Drops below altitude 10° 05:15:40 10° 108° (ESE) 3,865 11.4 -30.4°
Sets 05:18:50 0° 112° (ESE) 4,829 11.9 -29.9°
